THORAD AGENA D DEB, 4913

Orbit data source: Space-Track

THORAD AGENA D DEB, 4913 is space debris in SSO originally from a launch on Wed, 08 Apr 1970 UTC launched from the Air Force Western Test Range (AFWTR). Debris objects in space refer to the collection of defunct objects orbiting the Earth. Examples of debris include non-operational satellites, rocket bodies, and fragments generated from explosions, collisions, or faulty payload assembly.

Loading next visibility...
Identifier
4913, 1970-025FK
Orbit
SSO
Country
Flag of USUS
Related business
Manufacturer
Unknown
Mission
Spacecraft
Bus & Motor
Unknown
Mass
Unknown
Launch date (UTC)
1970-04-08 (56 years ago)
Launch vehicle
Unknown
Launch site
Air Force Western Test Range (AFWTR)
Object type
Payload
Rocket body
Debris
Shape & HBR
Unknown shape, 0.1 m
Radar Cross Section
Medium (>0.1 m² and <1 m²)

Expand to show TLE details & history
Last TLE update: 3 days ago

TLE from 3 days ago
0 THORAD AGENA D DEB
1  4913U 70025FK  26171.24696631  .00000353  00000-0  24472-3 0  9998
2  4913  99.8114 266.5575 0138478 191.1861 168.6214 14.01698106854411
Epoch: 2026-06-20T05:55Z
TLE epoch observation values (Epoch: 2026-06-20T05:55:37.889Z)
Latitude
-0.00001°
Longitude
-90.8147°
Altitude
989.487 km
Speed
7.307 km/s
True Right ascension
17h 46m 13s
True Declination
0° 00' 00"
Sunlit
Object was in full shadow at epoch
Visualization orbit readout
Latitude
Unknown
Longitude
Unknown
Altitude
Unknown
Speed
Unknown
Apparent Right ascension
Unknown
Apparent Declination
Unknown
Sunlit
N/A
Visualization observer readout
Local Sidereal Time
07:08:12
Azimuth
Unknown
Elevation
Unknown
Doppler factor
Unknown
Orbital elements
Apogee altitude
985.739 km
Perigee altitude
784.578 km
Semi-major axis
7,263.296 km
Eccentricity
0.01385
Inclination
99.8114°
RAAN
266.5575°
Arg. of periapsis
191.1861°
True anomaly
168.92924°
Mean anomaly
168.6214°
Eccentric anomaly
168.77584°
Mean motion
3.50625 °/min
Orbital period
102.67 mins
BSTAR
0.00024472
Loading maneuver chart data...
Computing Atmospheric mass density...

Documentation

Showing up to 5 results
|